Location: *
(40.9167°N, 9.5000°E)
Time: 21:27:34
(UTC+00:00)

Cosmos 1726 - Pass Details

Date: 09 April 2020
Orbit: 482 x 500 km, 82.5° (Epoch: 31 May)

Event Time Altitude Azimuth Distance (km) Brightness Sun altitude
Rises 18:59:29 0° 207° (SSW) 2,579 5.8 -12.3°
Reaches altitude 10° 19:01:44 10° 218° (SW) 1,701 5.0 -12.7°
Maximum altitude 19:05:07 32° 283° (WNW) 876 4.1 -13.3°
Drops below altitude 10° 19:08:30 10° 348° (NNW) 1,709 5.3 -13.9°
Sets 19:10:47 0° 358° (N) 2,595 6.1 -14.3°
